OPS 4682 DEB, 26733

Orbit data source: Space-Track

OPS 4682 DEB, 26733 is space debris in LEO originally from a launch on Sat, 03 Apr 1965 UTC launched from the Air Force Western Test Range (AFWTR). Debris objects in space refer to the collection of defunct objects orbiting the Earth. Examples of debris include non-operational satellites, rocket bodies, and fragments generated from explosions, collisions, or faulty payload assembly.

Loading next visibility...
Identifier
26733, 1965-027BG
Orbit
LEO
Country
Flag of USUS
Related business
Manufacturer
Unknown
Mission
Spacecraft
Bus & Motor
Unknown
Mass
Unknown
Launch date (UTC)
1965-04-03 (61 years ago)
Launch vehicle
Unknown
Launch site
Air Force Western Test Range (AFWTR)
Object type
Payload
Rocket body
Debris
Shape & HBR
Unknown shape, 0.1 m
Radar Cross Section
Medium (>0.1 m² and <1 m²)

Expand to show TLE details & history
Last TLE update: 1 day ago

TLE from 1 day ago
0 OPS 4682 DEB
1 26733U 65027BG  26207.42280089  .00000199  00000-0  68465-3 0  9992
2 26733  90.2407   7.0238 0035608 121.1077 267.1425 12.94438565202082
Epoch: 2026-07-26T10:08Z
TLE epoch observation values (Epoch: 2026-07-26T10:08:49.996Z)
Latitude
27.87996°
Longitude
-89.43217°
Altitude
1,288.832 km
Speed
7.213 km/s
True Right ascension
00h 27m 35s
True Declination
27° 44' 52"
Sunlit
Object was in daylight at epoch
Visualization orbit readout
Latitude
Unknown
Longitude
Unknown
Altitude
Unknown
Speed
Unknown
Apparent Right ascension
Unknown
Apparent Declination
Unknown
Sunlit
N/A
Visualization observer readout
Local Sidereal Time
23:13:08
Azimuth
Unknown
Elevation
Unknown
Doppler factor
Unknown
Orbital elements
Apogee altitude
1,308.363 km
Perigee altitude
1,253.817 km
Semi-major axis
7,659.227 km
Eccentricity
0.00356
Inclination
90.2407°
RAAN
7.0238°
Arg. of periapsis
121.1077°
True anomaly
266.73506°
Mean anomaly
267.1425°
Eccentric anomaly
266.93877°
Mean motion
3.23792 °/min
Orbital period
111.18 mins
BSTAR
0.00068465
Loading maneuver chart data...
Computing Atmospheric mass density...
Loading historical data...
Loading historical data...
Loading historical data...
Loading historical data...
Loading historical data...
Loading historical data...
Loading historical data...

Documentation

Showing up to 5 results
|